Weather in Ozerki

Russia / Ulyanovsk Oblast     54°16′56″N   49°04′56″E
temp.,
°C
wind,
m/s
gust,
m/s
humid.,
%
clouds,
%
prec.,
mm/h
press.,
hPa
HPBL,
m
20 january, thu
thu2001:00−3sw499199 0.1 1017390
04:00−5wsw2595100 0.1 1018153
07:00−7s229699 0.0 101816
10:00−11s359554 0.0 101849
13:00−7sse479683 0.0 1018166
16:00−8sse599697 0.0 1018155
19:00−10sse599796 0.0 1018155
22:00−13sse479876 0.0 101993
21 january, fri
fri2101:00−13sse499879 0.0 1019116
04:00−14sse469890 0.0 102074
07:00−16sse489990 0.0 102099
10:00−15sse4910095 0.0 1020131
13:00−12sse6129675 0.0 1020239
16:00−11sse6139595 0.1 1019291
19:00−11sse6149590 0.0 1019309
22:00−12sse6149595 0.1 1019320
22 january, sat
sat2201:00−12se61594100 0.1 1018353
04:00−9sse71692100 0.1 1017502
07:00−8sse71493100 0.2 1017535
10:00−7sse61194100 0.6 1019457
13:00−6sse51094100 0.1 1021432
16:00−5sse5994100 0.1 1022412
19:00−5se4996100 0.1 1023346
22:00−6se4895100 0.4 1024280
23 january, sun
sun2301:00−6se51096100 0.8 1025335
04:00−5sse61395100 2.0 1026473
07:00−6se61293100 0.9 1027400
10:00−7se51191100 0.9 1029399
13:00−7se51086100 0.0 1030373
16:00−7se5987100 0.0 1032294
19:00−8se51085100 0.0 1033229
22:00−9ese4987100 0.0 1034184
24 january, mon
mon2401:00−9ese4987100 0.0 1035172
04:00−11ese4987100 0.0 1035135
07:00−12ese4988100 0.0 1036132
10:00−11ese3889100 0.0 1037167
13:00−8se41085100 0.0 1036292
16:00−9ese4887100 0.0 1036178
19:00−11ese4986100 0.0 1036132
22:00−12se4885100 0.0 1035123